Location: Amarillo Post Office Jordan Station
(35.1907°N, 101.9342°W)
Time: 12:58:27
(UTC+00:00)

OAO 2 Rocket - Pass Details

Date: 24 January 2021
Orbit: 676 x 745 km, 35.0° (Epoch: 03 March)

Event Time Altitude Azimuth Distance (km) Brightness Sun altitude
Exits shadow 13:17:07 - 274° (W) 2,240 5.3 -7.5°
Reaches altitude 10° 13:17:29 10° 273° (W) 2,104 5.2 -7.4°
Maximum altitude 13:22:10 46° 201° (SSW) 902 3.9 -6.5°
Drops below altitude 10° 13:26:51 10° 128° (SE) 2,102 7.2 -5.6°
Sets 13:29:19 0° 122° (ESE) 3,020 8.6 -5.1°
